Retour au catalogue

STARLINK-36281

ActifCommunicationsSSO
NORAD 67605·PAYLOAD·🇺🇸 United States

Lancé Jan 29, 2026 depuis Vandenberg Space Force Base

Loading…

Prochains Passages (prochaines 24 heures)

TLE

FraisSource: CelesTrak SupGP

Époque: Sep 14, 2026, 21:11 UTC

1 67605C 26018S   26257.88312500 -.00031322  00000+0 -97229-3 0  2571
2 67605  97.2852 321.3591 0000857  90.5152 330.8820 15.33456786    18

Suivez STARLINK-36281 en temps réel avec AllMySat

Download on the App Store